| time (UTC) | temp C | wind direction | speed KPH | gust KPH | rain 1hr cm | rain 24hr cm | rain mn cm | humidity % | barometer mb |
| 20260505041135 | 15 | 257 | 1.6 | 3.2 | 0.00 | 0.00 | 0.00 | 66 | 1011.7 |
| 20260505040110 | 15 | 259 | 3.2 | 9.7 | 0.00 | 0.00 | 0.00 | 65 | 1011.7 |
| 20260505035105 | 15 | 267 | 4.8 | 6.4 | 0.00 | 0.00 | 0.00 | 64 | 1011.6 |
| 20260505034058 | 15 | 303 | 3.2 | 6.4 | 0.00 | 0.00 | 0.00 | 66 | 1011.7 |
| 20260505033053 | 15 | 252 | 1.6 | 3.2 | 0.00 | 0.00 | 0.00 | 70 | 1011.8 |
| 20260505032048 | 15 | 248 | 1.6 | 3.2 | 0.00 | 0.00 | 0.00 | 71 | 1011.8 |
| 20260505031043 | 15 | 270 | 3.2 | 6.4 | 0.00 | 0.00 | 0.00 | 72 | 1011.9 |
| 20260505030117 | 15 | 308 | 3.2 | 6.4 | 0.00 | 0.00 | 0.00 | 74 | 1011.8 |
| 20260505025033 | 16 | 315 | 0.0 | 3.2 | 0.00 | 0.00 | 0.00 | 78 | 1011.9 |
| 20260505024027 | 16 | 315 | 1.6 | 3.2 | 0.00 | 0.00 | 0.00 | 78 | 1011.8 |
| 20260505023022 | 16 | 315 | 1.6 | 3.2 | 0.00 | 0.00 | 0.00 | 77 | 1011.8 |
| 20260505022152 | 16 | 315 | 0.0 | 3.2 | 0.00 | 0.00 | 0.00 | 75 | 1011.9 |
| 20260505021112 | 16 | 315 | 0.0 | 3.2 | 0.00 | 0.00 | 0.00 | 71 | 1011.9 |
| 20260505020127 | 16 | 315 | 1.6 | 6.4 | 0.00 | 0.00 | 0.00 | 68 | 1011.8 |
| 20260505015105 | 16 | 322 | 1.6 | 3.2 | 0.00 | 0.00 | 0.00 | 71 | 1011.8 |
| 20260505014121 | 16 | 0.0 | 0.0 | 0.00 | 0.00 | 0.00 | 79 | 1011.8 | |
| 20260505013050 | 16 | 338 | 0.0 | 3.2 | 0.00 | 0.00 | 0.00 | 80 | 1011.9 |
| 20260505012050 | 17 | 0.0 | 3.2 | 0.00 | 0.00 | 0.00 | 82 | 1012.0 | |
| 20260505011100 | 17 | 338 | 1.6 | 3.2 | 0.00 | 0.00 | 0.00 | 82 | 1012.1 |
| 20260505010040 | 17 | 9 | 1.6 | 3.2 | 0.00 | 0.00 | 0.00 | 78 | 1012.1 |
| 20260505005100 | 17 | 0.0 | 0.0 | 0.00 | 0.00 | 0.00 | 79 | 1012.2 | |
| 20260505004059 | 17 | 0.0 | 3.2 | 0.00 | 0.00 | 0.00 | 80 | 1012.5 | |
| 20260505003048 | 17 | 23 | 1.6 | 3.2 | 0.00 | 0.00 | 0.00 | 81 | 1012.5 |
| 20260505002043 | 17 | 338 | 0.0 | 3.2 | 0.00 | 0.00 | 0.00 | 81 | 1012.4 |
| 20260505001038 | 17 | 338 | 1.6 | 3.2 | 0.00 | 0.00 | 0.00 | 82 | 1012.4 |
| 20260505000037 | 17 | 338 | 3.2 | 6.4 | 0.00 | 0.00 | 0.00 | 81 | 1012.3 |
| 20260504235027 | 17 | 45 | 1.6 | 3.2 | 0.00 | 0.00 | 0.00 | 81 | 1012.4 |
| 20260504234028 | 17 | 45 | 0.0 | 3.2 | 0.00 | 0.00 | 0.00 | 81 | 1012.2 |
| 20260504233017 | 17 | 45 | 0.0 | 3.2 | 0.00 | 0.00 | 0.00 | 81 | 1012.2 |
| 20260504232132 | 17 | 0.0 | 3.2 | 0.00 | 0.00 | 0.00 | 81 | 1012.2 | |
| 20260504231127 | 18 | 0.0 | 3.2 | 0.00 | 0.00 | 0.00 | 81 | 1012.2 | |
| 20260504230101 | 18 | 0.0 | 0.0 | 0.00 | 0.00 | 0.00 | 81 | 1012.3 | |
| 20260504225055 | 18 | 0.0 | 0.0 | 0.00 | 0.00 | 0.00 | 80 | 1012.3 | |
| 20260504224110 | 18 | 45 | 0.0 | 3.2 | 0.00 | 0.00 | 0.00 | 80 | 1012.3 |
| 20260504223045 | 18 | 0.0 | 0.0 | 0.00 | 0.00 | 0.00 | 79 | 1012.3 | |
| 20260504222040 | 18 | 45 | 0.0 | 3.2 | 0.00 | 0.00 | 0.00 | 79 | 1012.3 |
| 20260504221035 | 18 | 34 | 3.2 | 3.2 | 0.00 | 0.00 | 0.00 | 78 | 1012.1 |
| 20260504220030 | 18 | 38 | 0.0 | 3.2 | 0.00 | 0.00 | 0.00 | 78 | 1012.2 |
| 20260504215105 | 18 | 45 | 1.6 | 3.2 | 0.00 | 0.00 | 0.00 | 77 | 1011.9 |
| 20260504214020 | 19 | 45 | 3.2 | 6.4 | 0.00 | 0.00 | 0.00 | 76 | 1012.0 |
| 20260504213115 | 19 | 63 | 3.2 | 6.4 | 0.00 | 0.00 | 0.00 | 75 | 1012.0 |
| 20260504212110 | 19 | 45 | 6.4 | 9.7 | 0.00 | 0.00 | 0.00 | 74 | 1011.9 |
| 20260504211104 | 19 | 23 | 4.8 | 12.9 | 0.00 | 0.00 | 0.00 | 73 | 1011.8 |
| 20260504210118 | 19 | 19 | 4.8 | 11.3 | 0.00 | 0.00 | 0.00 | 73 | 1011.7 |
| 20260504205053 | 20 | 23 | 6.4 | 11.3 | 0.00 | 0.00 | 0.00 | 71 | 1011.6 |
| 20260504204048 | 20 | 18 | 3.2 | 9.7 | 0.00 | 0.00 | 0.00 | 70 | 1011.4 |
| 20260504203043 | 21 | 13 | 4.8 | 11.3 | 0.00 | 0.00 | 0.00 | 68 | 1011.2 |
| 20260504202038 | 21 | 28 | 1.6 | 6.4 | 0.00 | 0.00 | 0.00 | 61 | 1011.2 |
| 20260504201033 | 21 | 19 | 3.2 | 9.7 | 0.00 | 0.00 | 0.00 | 57 | 1010.8 |
| 20260504200027 | 22 | 250 | 4.8 | 6.4 | 0.00 | 0.00 | 0.00 | 56 | 1010.7 |
| 20260504195022 | 22 | 262 | 4.8 | 6.4 | 0.00 | 0.00 | 0.00 | 55 | 1010.6 |
| 20260504194017 | 22 | 257 | 3.2 | 6.4 | 0.00 | 0.00 | 0.00 | 54 | 1010.4 |
| 20260504193132 | 23 | 236 | 1.6 | 6.4 | 0.00 | 0.00 | 0.00 | 54 | 1010.3 |
| 20260504192108 | 23 | 133 | 1.6 | 3.2 | 0.00 | 0.00 | 0.00 | 53 | 1010.1 |
| 20260504191121 | 23 | 102 | 1.6 | 6.4 | 0.00 | 0.00 | 0.00 | 52 | 1010.1 |
| 20260504190056 | 23 | 113 | 1.6 | 3.2 | 0.00 | 0.00 | 0.00 | 51 | 1009.9 |
| 20260504185051 | 23 | 135 | 1.6 | 6.4 | 0.00 | 0.00 | 0.00 | 50 | 1010.0 |
| 20260504184046 | 23 | 105 | 1.6 | 6.4 | 0.00 | 0.00 | 0.00 | 50 | 1010.1 |
| 20260504183040 | 24 | 173 | 1.6 | 6.4 | 0.00 | 0.00 | 0.00 | 49 | 1009.9 |
| 20260504182115 | 24 | 173 | 4.8 | 9.7 | 0.00 | 0.00 | 0.00 | 48 | 1009.8 |
| 20260504181030 | 25 | 147 | 3.2 | 9.7 | 0.00 | 0.00 | 0.00 | 47 | 1009.7 |
| 20260504180045 | 25 | 154 | 1.6 | 6.4 | 0.00 | 0.00 | 0.00 | 46 | 1009.7 |
| 20260504175020 | 25 | 179 | 4.8 | 11.3 | 0.00 | 0.00 | 0.00 | 46 | 1009.6 |
| 20260504174115 | 25 | 175 | 4.8 | 11.3 | 0.00 | 0.00 | 0.00 | 45 | 1009.5 |
| 20260504173110 | 26 | 150 | 3.2 | 11.3 | 0.00 | 0.00 | 0.00 | 45 | 1009.6 |
| 20260504172125 | 26 | 195 | 8.0 | 17.7 | 0.00 | 0.00 | 0.00 | 45 | 1009.4 |
| 20260504171119 | 26 | 221 | 3.2 | 11.3 | 0.00 | 0.00 | 0.00 | 42 | 1009.4 |
| 20260504151055 | 27 | 174 | 8.0 | 22.5 | 0.00 | 0.00 | 0.00 | 39 | 1009.2 |
| 20260504141024 | 27 | 204 | 11.3 | 22.5 | 0.00 | 0.00 | 0.00 | 45 | 1009.4 |
| 20260504100135 | 21 | 12 | 3.2 | 6.4 | 0.00 | 0.00 | 0.00 | 76 | 1012.8 |
| 20260504081017 | 17 | 90 | 1.6 | 3.2 | 0.00 | 0.00 | 0.00 | 93 | 1013.0 |
| 20260504080112 | 17 | 90 | 1.6 | 3.2 | 0.00 | 0.00 | 0.00 | 93 | 1013.2 |
| 20260504060130 | 17 | 31 | 3.2 | 6.4 | 0.00 | 0.00 | 0.00 | 94 | 1012.6 |